{"data":{"norad_id":49332,"epoch":"2026-05-24T23:22:38.556768Z","epoch_age_seconds":74306,"freshness":"FRESH","line1":"1 49332U 21095A   26144.97405737 -.00000275  00000+0  00000+0 0  9990","line2":"2 49332   0.0320  45.9931 0000874  30.5387  89.6063  1.00273631 17625","mean_motion":1.00273631,"eccentricity":8.74e-5,"inclination_deg":0.032,"raan_deg":45.9931,"arg_perigee_deg":30.5387,"mean_anomaly_deg":89.6063,"bstar":0,"rev_number":1762,"period_min":1436.0704660231,"perigee_km":35782.392315974,"apogee_km":35789.762620663,"semimajor_km":42164.214468318,"source":"CELESTRAK","updated_at":"2026-05-25T13:38:14.516437Z"}}